TimeCST,TemperatureF,Dew PointF,Humidity,Sea Level PressureIn,VisibilityMPH,Wind Direction,Wind SpeedMPH,Gust SpeedMPH,PrecipitationIn,Events,Conditions,WindDirDegrees,DateUTC
12:15 AM,12.2,5.0,73,29.79,10.0,WSW,8.1,-,N/A,,Clear,250,2014-02-22 06:15:00
12:35 AM,14.0,6.8,73,29.80,10.0,West,8.1,-,N/A,,Clear,260,2014-02-22 06:35:00
12:55 AM,12.2,5.0,73,29.81,10.0,West,8.1,15.0,N/A,,Clear,260,2014-02-22 06:55:00
1:15 AM,12.2,5.0,73,29.81,10.0,West,10.4,16.1,N/A,,Clear,260,2014-02-22 07:15:00
1:35 AM,12.2,5.0,73,29.82,10.0,West,8.1,15.0,N/A,,Clear,270,2014-02-22 07:35:00
1:55 AM,12.2,5.0,73,29.83,10.0,West,8.1,-,N/A,,Clear,260,2014-02-22 07:55:00
2:15 AM,12.2,5.0,73,29.82,10.0,Variable,5.8,12.7,N/A,,Clear,0,2014-02-22 08:15:00
2:35 AM,10.4,5.0,79,29.83,10.0,West,6.9,-,N/A,,Partly Cloudy,260,2014-02-22 08:35:00
2:55 AM,10.4,5.0,79,29.83,10.0,West,5.8,-,N/A,,Clear,260,2014-02-22 08:55:00
3:15 AM,10.4,5.0,79,29.84,10.0,WSW,6.9,-,N/A,,Clear,250,2014-02-22 09:15:00
3:35 AM,10.4,5.0,79,29.85,10.0,West,8.1,-,N/A,,Clear,260,2014-02-22 09:35:00
3:55 AM,10.4,3.2,73,29.85,10.0,West,5.8,-,N/A,,Clear,270,2014-02-22 09:55:00
4:15 AM,10.4,3.2,73,29.86,10.0,West,6.9,-,N/A,,Clear,280,2014-02-22 10:15:00
4:35 AM,10.4,3.2,73,29.86,10.0,Variable,6.9,-,N/A,,Clear,0,2014-02-22 10:35:00
4:55 AM,8.6,3.2,79,29.88,10.0,Variable,5.8,-,N/A,,Clear,0,2014-02-22 10:55:00
5:15 AM,8.6,3.2,79,29.87,10.0,WNW,5.8,-,N/A,,Clear,290,2014-02-22 11:15:00
5:35 AM,8.6,3.2,79,29.90,10.0,WSW,6.9,12.7,N/A,,Clear,240,2014-02-22 11:35:00
5:55 AM,8.6,1.4,73,29.89,10.0,Variable,6.9,12.7,N/A,,Clear,0,2014-02-22 11:55:00
6:15 AM,8.6,3.2,79,29.90,10.0,Variable,4.6,-,N/A,,Clear,0,2014-02-22 12:15:00
6:35 AM,8.6,1.4,73,29.91,10.0,WNW,5.8,-,N/A,,Clear,290,2014-02-22 12:35:00
6:55 AM,8.6,1.4,73,29.92,10.0,Variable,4.6,-,N/A,,Clear,0,2014-02-22 12:55:00
7:15 AM,8.6,1.4,73,29.93,10.0,WNW,6.9,-,N/A,,Clear,290,2014-02-22 13:15:00
7:35 AM,8.6,1.4,73,29.95,10.0,West,5.8,-,N/A,,Clear,270,2014-02-22 13:35:00
7:55 AM,8.6,1.4,73,29.95,10.0,Variable,4.6,13.8,N/A,,Clear,0,2014-02-22 13:55:00
8:15 AM,8.6,1.4,73,29.96,10.0,West,4.6,-,N/A,,Partly Cloudy,270,2014-02-22 14:15:00
8:35 AM,8.6,1.4,73,29.97,10.0,Variable,5.8,-,N/A,,Mostly Cloudy,0,2014-02-22 14:35:00
8:55 AM,8.6,1.4,73,29.95,10.0,WNW,5.8,-,N/A,,Mostly Cloudy,300,2014-02-22 14:55:00
9:15 AM,10.4,1.4,67,29.97,10.0,WNW,8.1,-,N/A,,Mostly Cloudy,300,2014-02-22 15:15:00
9:35 AM,12.2,3.2,67,29.97,10.0,WNW,9.2,-,N/A,,Mostly Cloudy,300,2014-02-22 15:35:00
9:55 AM,12.2,3.2,67,29.98,10.0,WNW,8.1,15.0,N/A,,Overcast,290,2014-02-22 15:55:00
10:15 AM,12.2,3.2,67,29.98,10.0,WNW,8.1,15.0,N/A,,Overcast,300,2014-02-22 16:15:00
10:35 AM,14.0,3.2,62,29.99,10.0,WNW,10.4,17.3,N/A,,Scattered Clouds,300,2014-02-22 16:35:00
10:55 AM,14.0,3.2,62,29.99,10.0,WNW,9.2,-,N/A,,Clear,300,2014-02-22 16:55:00
11:15 AM,14.0,3.2,62,29.99,10.0,WNW,6.9,12.7,N/A,,Clear,300,2014-02-22 17:15:00
11:35 AM,14.0,3.2,62,30.01,10.0,West,9.2,15.0,N/A,,Clear,270,2014-02-22 17:35:00
11:55 AM,14.0,3.2,62,30.00,10.0,West,9.2,15.0,N/A,,Clear,270,2014-02-22 17:55:00
12:15 PM,14.0,3.2,62,30.00,10.0,WNW,11.5,19.6,N/A,,Clear,290,2014-02-22 18:15:00
12:35 PM,15.8,3.2,58,29.98,10.0,NW,11.5,17.3,N/A,,Clear,310,2014-02-22 18:35:00
12:55 PM,15.8,5.0,62,29.98,10.0,West,9.2,-,N/A,,Clear,270,2014-02-22 18:55:00
1:15 PM,15.8,5.0,62,29.99,10.0,WSW,9.2,17.3,N/A,,Clear,250,2014-02-22 19:15:00
1:35 PM,15.8,5.0,62,29.99,10.0,West,11.5,-,N/A,,Clear,260,2014-02-22 19:35:00
1:55 PM,17.6,5.0,58,29.98,10.0,West,8.1,13.8,N/A,,Clear,270,2014-02-22 19:55:00
2:15 PM,15.8,5.0,62,29.98,10.0,Variable,6.9,15.0,N/A,,Clear,0,2014-02-22 20:15:00
2:35 PM,17.6,5.0,58,29.98,10.0,Variable,6.9,16.1,N/A,,Clear,0,2014-02-22 20:35:00
2:55 PM,17.6,5.0,58,29.99,10.0,West,8.1,15.0,N/A,,Clear,270,2014-02-22 20:55:00
3:15 PM,17.6,6.8,63,29.99,10.0,WNW,9.2,16.1,N/A,,Clear,300,2014-02-22 21:15:00
3:35 PM,17.6,5.0,58,29.99,10.0,WNW,10.4,16.1,N/A,,Clear,300,2014-02-22 21:35:00
3:55 PM,17.6,5.0,58,29.99,10.0,West,8.1,15.0,N/A,,Clear,270,2014-02-22 21:55:00
4:15 PM,17.6,6.8,63,29.99,10.0,Variable,6.9,13.8,N/A,,Clear,0,2014-02-22 22:15:00
4:35 PM,15.8,6.8,68,29.99,10.0,West,8.1,16.1,N/A,,Clear,270,2014-02-22 22:35:00
4:55 PM,15.8,5.0,62,30.00,10.0,WNW,10.4,-,N/A,,Clear,300,2014-02-22 22:55:00
5:15 PM,15.8,5.0,62,30.01,10.0,WNW,8.1,15.0,N/A,,Clear,300,2014-02-22 23:15:00
5:35 PM,14.0,6.8,73,30.02,10.0,Variable,6.9,-,N/A,,Clear,0,2014-02-22 23:35:00
5:55 PM,14.0,5.0,67,30.02,10.0,Variable,6.9,13.8,N/A,,Clear,0,2014-02-22 23:55:00
6:15 PM,14.0,5.0,67,30.03,10.0,Variable,5.8,-,N/A,,Clear,0,2014-02-23 00:15:00
6:35 PM,12.2,5.0,73,30.04,10.0,WNW,5.8,-,N/A,,Partly Cloudy,290,2014-02-23 00:35:00
6:55 PM,12.2,5.0,73,30.05,10.0,West,4.6,-,N/A,,Partly Cloudy,270,2014-02-23 00:55:00
7:15 PM,10.4,5.0,79,30.05,10.0,West,4.6,-,N/A,,Clear,270,2014-02-23 01:15:00
7:35 PM,10.4,5.0,79,30.06,10.0,West,4.6,-,N/A,,Clear,270,2014-02-23 01:35:00
7:55 PM,10.4,3.2,73,30.06,10.0,West,4.6,-,N/A,,Clear,260,2014-02-23 01:55:00
8:15 PM,10.4,3.2,73,30.07,10.0,West,5.8,-,N/A,,Clear,270,2014-02-23 02:15:00
8:35 PM,10.4,3.2,73,30.08,10.0,Variable,4.6,-,N/A,,Clear,0,2014-02-23 02:35:00
8:55 PM,8.6,3.2,79,30.09,10.0,West,4.6,-,N/A,,Clear,280,2014-02-23 02:55:00
9:15 PM,8.6,3.2,79,30.09,10.0,West,4.6,-,N/A,,Clear,270,2014-02-23 03:15:00
9:35 PM,8.6,1.4,73,30.10,10.0,WSW,4.6,-,N/A,,Clear,250,2014-02-23 03:35:00
9:55 PM,8.6,1.4,73,30.09,10.0,Calm,Calm,-,N/A,,Clear,0,2014-02-23 03:55:00
10:15 PM,6.8,1.4,79,30.09,10.0,West,4.6,-,N/A,,Clear,260,2014-02-23 04:15:00
10:35 PM,6.8,1.4,79,30.10,10.0,West,4.6,-,N/A,,Clear,280,2014-02-23 04:35:00
10:55 PM,6.8,1.4,79,30.10,10.0,WNW,5.8,-,N/A,,Clear,290,2014-02-23 04:55:00
11:15 PM,8.6,1.4,73,30.10,10.0,West,5.8,-,N/A,,Clear,280,2014-02-23 05:15:00
11:35 PM,6.8,1.4,79,30.11,10.0,West,4.6,-,N/A,,Clear,280,2014-02-23 05:35:00
11:55 PM,6.8,1.4,79,30.11,10.0,WNW,5.8,-,N/A,,Clear,290,2014-02-23 05:55:00